Regional Weather Roundup
Issued by NWS Cleveland, OH

Home | Current Version | Previous Version | Graphics & Text | Print | Product List | Glossary On
Versions: 1 2 3 4 5 6 7 8 9 10 11 12 13 14 15 16 17 18 19 20 21 22 23 24 25 26 27 28 29 30 31 32 33 34 35 36 37 38 39 40 41 42 43 44 45 46 47 48 49 50
129
ASUS41 KCLE 221712
RWRCLE
OHIO REGIONAL WEATHER ROUNDUP
NATIONAL WEATHER SERVICE WILMINGTON, OH
1200 PM EST WED FEB 22 2017

NOTE: "FAIR" INDICATES FEW OR NO CLOUDS BELOW 12,000 FEET WITH NO
SIGNIFICANT WEATHER AND/OR OBSTRUCTIONS TO VISIBILITY.

OHZ001>008-015>018-024>027-034-035-043-044-221800-
   NORTHWEST OHIO

CITY           SKY/WX    TMP DP  RH WIND       PRES   REMARKS
DEFIANCE       CLOUDY    60  54  80 SW9       29.84F
FINDLAY        CLOUDY    61  53  75 S13       29.85F
TOLEDO EXPRESS CLOUDY    63  55  75 S12       29.83F
TOLEDO EXEC    CLOUDY    63  55  75 SW13      29.84F
LIMA           CLOUDY    57  56  96 S10       29.86F FOG
$$

OHZ009>014-019>023-028>033-038-089-221800-
   NORTHEAST OHIO

CITY           SKY/WX    TMP DP  RH WIND       PRES   REMARKS
CLE-HOPKINS    CLOUDY    62  53  72 SW12      29.90F
CLE-LAKEFRONT  CLOUDY    62  53  72 SW9       29.86F
CUY CO. ARPT   PTSUNNY   61  55  82 SW12      29.88F
LORAIN-ELYRIA  CLOUDY    60  52  74 SW13      29.88S
ASHTABULA      CLOUDY    57  54  89 SW8       29.89F
AKRON-CANTON   FOG       55  52  89 SW10      29.91F VSB 1
WOOSTER        CLOUDY    56  53  90 SW12      29.91S
MANSFIELD      CLOUDY    56  55  97 SW10      29.90S FOG
YOUNGSTOWN     LGT RAIN  56  54  93 SW7       29.92F VSB 1
$$

OHZ042-051>053-060>062-070>072-077>081-221800-
  SOUTHWEST OHIO

CITY           SKY/WX    TMP DP  RH WIND       PRES   REMARKS
CINC-COVINGTON CLOUDY    59  57  93 S9        29.90F
CINC-LUNKEN    CLOUDY    60  58  92 S9        29.91F
HAMILTON       CLOUDY    60  58  92 SW3       29.91S
DAYTON         FOG       56  55  97 S9        29.90F VSB 1/2
WRIGHT-PAT AFB CLOUDY    57  57 100 S9        29.89F
DAYTON GENERAL CLOUDY    57  56  96 S8        29.89F FOG
WILMINGTON     CLOUDY    56  55  97 S10       29.90F FOG
$$

OHZ036-037-039>041-045>050-054>059-063>069-073>076-082>088-221800-
  CENTRAL AND SOUTHEAST OHIO

CITY           SKY/WX    TMP DP  RH WIND       PRES   REMARKS
COLUMBUS       CLOUDY    58  55  90 S10       29.91F FOG
OSU AIRPORT    CLOUDY    57  56  96 S9        29.90F
BOLTON FIELD   CLOUDY    55  55 100 S10       29.92S FOG
RICKENBACK AFB CLOUDY    56  56 100 S13       29.91F
NEWARK         CLOUDY    58  54  86 S9        29.91F
MARION         CLOUDY    58  54  86 S13       29.89F
LANCASTER      CLOUDY    59  55  87 S12       29.92F
ZANESVILLE     CLOUDY    56  54  93 S7        29.93F
NEW PHILLY     CLOUDY    58  54  86 SW5       29.92F
$$




USA.gov is the U.S. government's official web portal to all federal, state and local government web resources and services.